owner,sensor,date,latitude,longitude,vertical_datum,wind_speed,wind_to_direction,wind_speed_of_gust,qcFlag 
ADCP,ioos:station:wmo:42887:1,2012-05-01T00:20:00Z,28.1910,-88.4960,48.2,5.9,95.0,99.0,'11111222,11111222,11144222' 
ADCP,ioos:station:wmo:42887:1,2012-05-01T01:00:00Z,28.1910,-88.4960,48.2,6.1,104.0,99.0,'11111222,11111222,11144222' 
ADCP,ioos:station:wmo:42887:1,2012-05-01T01:20:00Z,28.1910,-88.4960,48.2,6.3,101.0,99.0,'11111222,11111222,11144222' 
ADCP,ioos:station:wmo:42887:1,2012-05-01T03:20:00Z,28.1910,-88.4960,48.2,6.6,113.0,99.0,'11111222,11111222,11144222' 
ADCP,ioos:station:wmo:42887:1,2012-05-01T03:40:00Z,28.1910,-88.4960,48.2,6.5,107.0,99.0,'11111222,11111222,11144222' 
ADCP,ioos:station:wmo:42887:1,2012-05-01T11:40:00Z,28.1910,-88.4960,48.2,8.3,125.0,99.0,'11111222,11111222,11144222' 
ADCP,ioos:station:wmo:42887:1,2012-05-01T13:20:00Z,28.1910,-88.4960,48.2,10.0,127.0,99.0,'11111222,11111222,11144222' 
ADCP,ioos:station:wmo:42887:1,2012-05-01T14:00:00Z,28.1910,-88.4960,48.2,9.8,132.0,99.0,'11111222,11111222,11144222' 
ADCP,ioos:station:wmo:42887:1,2012-05-01T15:00:00Z,28.1910,-88.4960,48.2,8.8,131.0,99.0,'11111222,11111222,11144222' 
ADCP,ioos:station:wmo:42887:1,2012-05-01T15:40:00Z,28.1910,-88.4960,48.2,9.1,132.0,99.0,'11111222,11111222,11144222' 
ADCP,ioos:station:wmo:42887:1,2012-05-01T16:00:00Z,28.1910,-88.4960,48.2,10.1,133.0,99.0,'11111222,11111222,11144222' 
ADCP,ioos:station:wmo:42887:1,2012-05-01T17:00:00Z,28.1910,-88.4960,48.2,9.4,134.0,99.0,'11111222,11111222,11144222' 
ADCP,ioos:station:wmo:42887:1,2012-05-01T17:40:00Z,28.1910,-88.4960,48.2,10.3,128.0,99.0,'11111222,11111222,11144222' 
ADCP,ioos:station:wmo:42887:1,2012-05-01T18:40:00Z,28.1910,-88.4960,48.2,8.7,132.0,99.0,'11111222,11111222,11144222' 
ADCP,ioos:station:wmo:42887:1,2012-05-01T19:20:00Z,28.1910,-88.4960,48.2,9.7,129.0,99.0,'11111222,11111222,11144222' 
ADCP,ioos:station:wmo:42887:1,2012-05-01T20:20:00Z,28.1910,-88.4960,48.2,8.6,130.0,99.0,'11111222,11111222,11144222' 
ADCP,ioos:station:wmo:42887:1,2012-05-01T23:20:00Z,28.1910,-88.4960,48.2,9.5,120.0,99.0,'11111222,11111222,11144222' 
ADCP,ioos:station:wmo:42887:1,2012-05-02T00:20:00Z,28.1910,-88.4960,48.2,10.6,127.0,99.0,'11111222,11111222,11144222' 
ADCP,ioos:station:wmo:42887:1,2012-05-02T01:20:00Z,28.1910,-88.4960,48.2,8.9,127.0,99.0,'11111222,11111222,11144222' 
ADCP,ioos:station:wmo:42887:1,2012-05-02T01:40:00Z,28.1910,-88.4960,48.2,9.9,132.0,99.0,'11111222,11111222,11144222' 
ADCP,ioos:station:wmo:42887:1,2012-05-02T02:00:00Z,28.1910,-88.4960,48.2,10.7,125.0,99.0,'11111222,11111222,11144222' 
ADCP,ioos:station:wmo:42887:1,2012-05-02T02:40:00Z,28.1910,-88.4960,48.2,9.4,141.0,99.0,'11111222,11111222,11144222' 
ADCP,ioos:station:wmo:42887:1,2012-05-02T03:40:00Z,28.1910,-88.4960,48.2,8.3,132.0,99.0,'11111222,11111222,11144222' 
ADCP,ioos:station:wmo:42887:1,2012-05-02T04:20:00Z,28.1910,-88.4960,48.2,8.6,133.0,99.0,'11111222,11111222,11144222' 
ADCP,ioos:station:wmo:42887:1,2012-05-02T04:40:00Z,28.1910,-88.4960,48.2,8.6,143.0,99.0,'11111222,11111222,11144222' 
ADCP,ioos:station:wmo:42887:1,2012-05-02T05:00:00Z,28.1910,-88.4960,48.2,7.9,146.0,99.0,'11111222,11111222,11144222' 
ADCP,ioos:station:wmo:42887:1,2012-05-02T06:00:00Z,28.1910,-88.4960,48.2,8.7,150.0,99.0,'11111222,11111222,11144222' 
ADCP,ioos:station:wmo:42887:1,2012-05-02T07:00:00Z,28.1910,-88.4960,48.2,7.8,161.0,99.0,'11111222,11111222,11144222' 
ADCP,ioos:station:wmo:42887:1,2012-05-02T08:20:00Z,28.1910,-88.4960,48.2,8.7,157.0,99.0,'11111222,11111222,11144222' 
ADCP,ioos:station:wmo:42887:1,2012-05-02T09:40:00Z,28.1910,-88.4960,48.2,8.2,166.0,99.0,'11111222,11111222,11144222' 
ADCP,ioos:station:wmo:42887:1,2012-05-02T10:00:00Z,28.1910,-88.4960,48.2,7.9,165.0,99.0,'11111222,11111222,11144222' 
ADCP,ioos:station:wmo:42887:1,2012-05-02T10:20:00Z,28.1910,-88.4960,48.2,6.7,209.0,99.0,'11111222,11111222,11144222' 
ADCP,ioos:station:wmo:42887:1,2012-05-02T11:40:00Z,28.1910,-88.4960,48.2,6.8,213.0,99.0,'11111222,11111222,11144222' 
ADCP,ioos:station:wmo:42887:1,2012-05-02T12:20:00Z,28.1910,-88.4960,48.2,4.1,184.0,99.0,'11111222,11111222,11144222' 
ADCP,ioos:station:wmo:42887:1,2012-05-02T13:00:00Z,28.1910,-88.4960,48.2,4.4,187.0,99.0,'11111222,11111222,11144222' 
ADCP,ioos:station:wmo:42887:1,2012-05-02T13:20:00Z,28.1910,-88.4960,48.2,4.5,175.0,99.0,'11111222,11111222,11144222' 
ADCP,ioos:station:wmo:42887:1,2012-05-02T14:40:00Z,28.1910,-88.4960,48.2,5.3,165.0,99.0,'11111222,11111222,11144222' 
ADCP,ioos:station:wmo:42887:1,2012-05-02T16:00:00Z,28.1910,-88.4960,48.2,5.5,172.0,99.0,'11111222,11111222,11144222' 
ADCP,ioos:station:wmo:42887:1,2012-05-02T17:00:00Z,28.1910,-88.4960,48.2,5.5,160.0,99.0,'11111222,11111222,11144222' 
ADCP,ioos:station:wmo:42887:1,2012-05-02T17:40:00Z,28.1910,-88.4960,48.2,4.6,164.0,99.0,'11111222,11111222,11144222' 
ADCP,ioos:station:wmo:42887:1,2012-05-02T18:00:00Z,28.1910,-88.4960,48.2,4.7,157.0,99.0,'11111222,11111222,11144222' 
ADCP,ioos:station:wmo:42887:1,2012-05-02T18:20:00Z,28.1910,-88.4960,48.2,4.4,157.0,99.0,'11111222,11111222,11144222' 
ADCP,ioos:station:wmo:42887:1,2012-05-02T18:40:00Z,28.1910,-88.4960,48.2,5.0,159.0,99.0,'11111222,11111222,11144222' 
ADCP,ioos:station:wmo:42887:1,2012-05-02T19:20:00Z,28.1910,-88.4960,48.2,4.4,170.0,99.0,'11111222,11111222,11144222' 
ADCP,ioos:station:wmo:42887:1,2012-05-02T19:40:00Z,28.1910,-88.4960,48.2,4.4,160.0,99.0,'11111222,11111222,11144222' 
ADCP,ioos:station:wmo:42887:1,2012-05-02T20:00:00Z,28.1910,-88.4960,48.2,4.8,164.0,99.0,'11111222,11111222,11144222' 
ADCP,ioos:station:wmo:42887:1,2012-05-02T23:40:00Z,28.1910,-88.4960,48.2,2.6,179.0,99.0,'11111222,11111222,11144222' 
ADCP,ioos:station:wmo:42887:1,2012-05-03T00:00:00Z,28.1910,-88.4960,48.2,6.0,169.0,99.0,'11111222,11111222,11144222' 
ADCP,ioos:station:wmo:42887:1,2012-05-03T00:20:00Z,28.1910,-88.4960,48.2,5.9,156.0,99.0,'11111222,11111222,11144222' 
ADCP,ioos:station:wmo:42887:1,2012-05-03T01:20:00Z,28.1910,-88.4960,48.2,5.1,161.0,99.0,'11111222,11111222,11144222' 
ADCP,ioos:station:wmo:42887:1,2012-05-03T02:20:00Z,28.1910,-88.4960,48.2,7.3,157.0,99.0,'11111222,11111222,11144222' 
ADCP,ioos:station:wmo:42887:1,2012-05-03T02:40:00Z,28.1910,-88.4960,48.2,7.5,161.0,99.0,'11111222,11111222,11144222' 
ADCP,ioos:station:wmo:42887:1,2012-05-03T04:00:00Z,28.1910,-88.4960,48.2,5.1,179.0,99.0,'11111222,11111222,11144222' 
ADCP,ioos:station:wmo:42887:1,2012-05-03T05:00:00Z,28.1910,-88.4960,48.2,5.2,166.0,99.0,'11111222,11111222,11144222' 
ADCP,ioos:station:wmo:42887:1,2012-05-03T06:00:00Z,28.1910,-88.4960,48.2,7.1,151.0,99.0,'11111222,11111222,11144222' 
ADCP,ioos:station:wmo:42887:1,2012-05-03T08:00:00Z,28.1910,-88.4960,48.2,9.3,222.0,99.0,'11111222,11111222,11144222' 
ADCP,ioos:station:wmo:42887:1,2012-05-03T09:00:00Z,28.1910,-88.4960,48.2,6.5,140.0,99.0,'11111222,11111222,11144222' 
ADCP,ioos:station:wmo:42887:1,2012-05-03T09:40:00Z,28.1910,-88.4960,48.2,6.0,142.0,99.0,'11111222,11111222,11144222' 
ADCP,ioos:station:wmo:42887:1,2012-05-03T13:00:00Z,28.1910,-88.4960,48.2,2.9,144.0,99.0,'11111222,11111222,11144222' 
ADCP,ioos:station:wmo:42887:1,2012-05-03T13:40:00Z,28.1910,-88.4960,48.2,4.0,103.0,99.0,'11111222,11111222,11144222' 
ADCP,ioos:station:wmo:42887:1,2012-05-03T14:00:00Z,28.1910,-88.4960,48.2,1.2,103.0,99.0,'11111222,11111222,11144222' 
ADCP,ioos:station:wmo:42887:1,2012-05-03T14:40:00Z,28.1910,-88.4960,48.2,3.1,102.0,99.0,'11111222,11111222,11144222' 
ADCP,ioos:station:wmo:42887:1,2012-05-03T15:20:00Z,28.1910,-88.4960,48.2,1.9,103.0,99.0,'11111222,11111222,11144222' 
ADCP,ioos:station:wmo:42887:1,2012-05-03T17:40:00Z,28.1910,-88.4960,48.2,0.1,103.0,99.0,'11111222,11111222,11144222' 
ADCP,ioos:station:wmo:42887:1,2012-05-03T19:40:00Z,28.1910,-88.4960,48.2,0.0,106.0,99.0,'11111222,11111222,11144222' 
ADCP,ioos:station:wmo:42887:1,2012-05-03T20:00:00Z,28.1910,-88.4960,48.2,0.0,104.0,99.0,'11111222,11111222,11144222' 
ADCP,ioos:station:wmo:42887:1,2012-05-03T20:20:00Z,28.1910,-88.4960,48.2,0.1,105.0,99.0,'11111222,11111222,11144222' 
ADCP,ioos:station:wmo:42887:1,2012-05-03T22:20:00Z,28.1910,-88.4960,48.2,0.0,296.0,99.0,'11111222,11111222,11144222' 
ADCP,ioos:station:wmo:42887:1,2012-05-03T23:40:00Z,28.1910,-88.4960,48.2,0.3,106.0,99.0,'11111222,11111222,11144222' 
ADCP,ioos:station:wmo:42887:1,2012-05-04T00:00:00Z,28.1910,-88.4960,48.2,0.2,321.0,99.0,'11111222,11111222,11144222' 
ADCP,ioos:station:wmo:42887:1,2012-05-04T00:20:00Z,28.1910,-88.4960,48.2,1.1,103.0,99.0,'11111222,11111222,11144222' 
ADCP,ioos:station:wmo:42887:1,2012-05-04T00:40:00Z,28.1910,-88.4960,48.2,1.0,104.0,99.0,'11111222,11111222,11144222' 
ADCP,ioos:station:wmo:42887:1,2012-05-04T02:20:00Z,28.1910,-88.4960,48.2,4.1,158.0,99.0,'11111222,11111222,11144222' 
ADCP,ioos:station:wmo:42887:1,2012-05-04T02:40:00Z,28.1910,-88.4960,48.2,3.8,159.0,99.0,'11111222,11111222,11144222' 
ADCP,ioos:station:wmo:42887:1,2012-05-04T03:00:00Z,28.1910,-88.4960,48.2,4.2,157.0,99.0,'11111222,11111222,11144222' 
ADCP,ioos:station:wmo:42887:1,2012-05-04T04:00:00Z,28.1910,-88.4960,48.2,5.9,157.0,99.0,'11111222,11111222,11144222' 
ADCP,ioos:station:wmo:42887:1,2012-05-04T04:40:00Z,28.1910,-88.4960,48.2,5.9,166.0,99.0,'11111222,11111222,11144222' 
ADCP,ioos:station:wmo:42887:1,2012-05-04T05:40:00Z,28.1910,-88.4960,48.2,5.9,166.0,99.0,'11111222,11111222,11144222' 
ADCP,ioos:station:wmo:42887:1,2012-05-04T06:40:00Z,28.1910,-88.4960,48.2,5.9,171.0,99.0,'11111222,11111222,11144222' 
ADCP,ioos:station:wmo:42887:1,2012-05-04T08:00:00Z,28.1910,-88.4960,48.2,5.9,166.0,99.0,'11111222,11111222,11144222' 
ADCP,ioos:station:wmo:42887:1,2012-05-04T09:20:00Z,28.1910,-88.4960,48.2,4.2,174.0,99.0,'11111222,11111222,11144222' 
ADCP,ioos:station:wmo:42887:1,2012-05-04T10:20:00Z,28.1910,-88.4960,48.2,3.1,186.0,99.0,'11111222,11111222,11144222' 
ADCP,ioos:station:wmo:42887:1,2012-05-04T11:40:00Z,28.1910,-88.4960,48.2,3.3,194.0,99.0,'11111222,11111222,11144222' 
ADCP,ioos:station:wmo:42887:1,2012-05-04T12:20:00Z,28.1910,-88.4960,48.2,2.2,182.0,99.0,'11111222,11111222,11144222' 
ADCP,ioos:station:wmo:42887:1,2012-05-04T12:40:00Z,28.1910,-88.4960,48.2,1.8,183.0,99.0,'11111222,11111222,11144222' 
ADCP,ioos:station:wmo:42887:1,2012-05-04T13:00:00Z,28.1910,-88.4960,48.2,1.7,180.0,99.0,'11111222,11111222,11144222' 
ADCP,ioos:station:wmo:42887:1,2012-05-04T13:40:00Z,28.1910,-88.4960,48.2,2.1,195.0,99.0,'11111222,11111222,11144222' 
ADCP,ioos:station:wmo:42887:1,2012-05-04T14:00:00Z,28.1910,-88.4960,48.2,1.3,183.0,99.0,'11111222,11111222,11144222' 
ADCP,ioos:station:wmo:42887:1,2012-05-04T15:20:00Z,28.1910,-88.4960,48.2,1.6,218.0,99.0,'11111222,11111222,11144222' 
ADCP,ioos:station:wmo:42887:1,2012-05-04T16:20:00Z,28.1910,-88.4960,48.2,0.5,213.0,99.0,'11111222,11111222,11144222' 
ADCP,ioos:station:wmo:42887:1,2012-05-04T17:20:00Z,28.1910,-88.4960,48.2,0.7,49.0,99.0,'11111222,11111222,11144222' 
ADCP,ioos:station:wmo:42887:1,2012-05-04T20:00:00Z,28.1910,-88.4960,48.2,2.3,76.0,99.0,'11111222,11111222,11144222' 
ADCP,ioos:station:wmo:42887:1,2012-05-04T21:00:00Z,28.1910,-88.4960,48.2,3.2,96.0,99.0,'11111222,11111222,11144222' 
ADCP,ioos:station:wmo:42887:1,2012-05-04T21:40:00Z,28.1910,-88.4960,48.2,2.6,108.0,99.0,'11111222,11111222,11144222' 
ADCP,ioos:station:wmo:42887:1,2012-05-04T22:40:00Z,28.1910,-88.4960,48.2,2.9,114.0,99.0,'11111222,11111222,11144222' 
ADCP,ioos:station:wmo:42887:1,2012-05-05T00:00:00Z,28.1910,-88.4960,48.2,2.9,115.0,99.0,'11111222,11111222,11144222' 
ADCP,ioos:station:wmo:42887:1,2012-05-05T00:20:00Z,28.1910,-88.4960,48.2,2.3,111.0,99.0,'11111222,11111222,11144222' 
ADCP,ioos:station:wmo:42887:1,2012-05-05T01:20:00Z,28.1910,-88.4960,48.2,2.9,120.0,99.0,'11111222,11111222,11144222' 
ADCP,ioos:station:wmo:42887:1,2012-05-05T02:00:00Z,28.1910,-88.4960,48.2,3.2,115.0,99.0,'11111222,11111222,11144222' 
ADCP,ioos:station:wmo:42887:1,2012-05-05T02:40:00Z,28.1910,-88.4960,48.2,2.0,118.0,99.0,'11111222,11111222,11144222' 
ADCP,ioos:station:wmo:42887:1,2012-05-05T03:40:00Z,28.1910,-88.4960,48.2,1.8,118.0,99.0,'11111222,11111222,11144222' 
ADCP,ioos:station:wmo:42887:1,2012-05-05T05:20:00Z,28.1910,-88.4960,48.2,3.2,127.0,99.0,'11111222,11111222,11144222' 
ADCP,ioos:station:wmo:42887:1,2012-05-05T06:40:00Z,28.1910,-88.4960,48.2,1.8,148.0,99.0,'11111222,11111222,11144222' 
ADCP,ioos:station:wmo:42887:1,2012-05-05T09:00:00Z,28.1910,-88.4960,48.2,0.6,160.0,99.0,'11111222,11111222,11144222' 
ADCP,ioos:station:wmo:42887:1,2012-05-05T09:40:00Z,28.1910,-88.4960,48.2,0.4,162.0,99.0,'11111222,11111222,11144222' 
ADCP,ioos:station:wmo:42887:1,2012-05-05T10:20:00Z,28.1910,-88.4960,48.2,0.5,196.0,99.0,'11111222,11111222,11144222' 
ADCP,ioos:station:wmo:42887:1,2012-05-05T10:40:00Z,28.1910,-88.4960,48.2,0.0,243.0,99.0,'11111222,11111222,11144222' 
ADCP,ioos:station:wmo:42887:1,2012-05-05T11:40:00Z,28.1910,-88.4960,48.2,0.2,99.0,99.0,'11111222,11111222,11144222' 
ADCP,ioos:station:wmo:42887:1,2012-05-05T12:00:00Z,28.1910,-88.4960,48.2,0.0,29.0,99.0,'11111222,11111222,11144222' 
ADCP,ioos:station:wmo:42887:1,2012-05-05T13:20:00Z,28.1910,-88.4960,48.2,0.4,13.0,99.0,'11111222,11111222,11144222' 
ADCP,ioos:station:wmo:42887:1,2012-05-05T14:00:00Z,28.1910,-88.4960,48.2,1.3,308.0,99.0,'11111222,11111222,11144222' 
ADCP,ioos:station:wmo:42887:1,2012-05-05T14:40:00Z,28.1910,-88.4960,48.2,1.8,3.0,99.0,'11111222,11111222,11144222' 
ADCP,ioos:station:wmo:42887:1,2012-05-05T15:00:00Z,28.1910,-88.4960,48.2,2.5,337.0,99.0,'11111222,11111222,11144222' 
ADCP,ioos:station:wmo:42887:1,2012-05-05T15:20:00Z,28.1910,-88.4960,48.2,2.5,356.0,99.0,'11111222,11111222,11144222' 
ADCP,ioos:station:wmo:42887:1,2012-05-05T17:00:00Z,28.1910,-88.4960,48.2,2.7,61.0,99.0,'11111222,11111222,11144222' 
ADCP,ioos:station:wmo:42887:1,2012-05-05T17:40:00Z,28.1910,-88.4960,48.2,3.3,70.0,99.0,'11111222,11111222,11144222' 
ADCP,ioos:station:wmo:42887:1,2012-05-05T19:00:00Z,28.1910,-88.4960,48.2,2.1,84.0,99.0,'11111222,11111222,11144222' 
ADCP,ioos:station:wmo:42887:1,2012-05-05T20:40:00Z,28.1910,-88.4960,48.2,3.5,88.0,99.0,'11111222,11111222,11144222' 
ADCP,ioos:station:wmo:42887:1,2012-05-05T21:40:00Z,28.1910,-88.4960,48.2,3.9,102.0,99.0,'11111222,11111222,11144222' 
ADCP,ioos:station:wmo:42887:1,2012-05-05T22:40:00Z,28.1910,-88.4960,48.2,4.4,108.0,99.0,'11111222,11111222,11144222' 
ADCP,ioos:station:wmo:42887:1,2012-05-05T23:00:00Z,28.1910,-88.4960,48.2,2.5,119.0,99.0,'11111222,11111222,11144222' 
ADCP,ioos:station:wmo:42887:1,2012-05-06T01:00:00Z,28.1910,-88.4960,48.2,1.5,103.0,99.0,'11111222,11111222,11144222' 
ADCP,ioos:station:wmo:42887:1,2012-05-06T01:20:00Z,28.1910,-88.4960,48.2,2.0,93.0,99.0,'11111222,11111222,11144222' 
ADCP,ioos:station:wmo:42887:1,2012-05-06T02:00:00Z,28.1910,-88.4960,48.2,0.8,85.0,99.0,'11111222,11111222,11144222' 
ADCP,ioos:station:wmo:42887:1,2012-05-06T02:40:00Z,28.1910,-88.4960,48.2,1.2,185.0,99.0,'11111222,11111222,11144222' 
ADCP,ioos:station:wmo:42887:1,2012-05-06T03:40:00Z,28.1910,-88.4960,48.2,0.6,183.0,99.0,'11111222,11111222,11144222' 
ADCP,ioos:station:wmo:42887:1,2012-05-06T04:00:00Z,28.1910,-88.4960,48.2,1.2,200.0,99.0,'11111222,11111222,11144222' 
ADCP,ioos:station:wmo:42887:1,2012-05-06T04:40:00Z,28.1910,-88.4960,48.2,1.6,217.0,99.0,'11111222,11111222,11144222' 
ADCP,ioos:station:wmo:42887:1,2012-05-06T05:00:00Z,28.1910,-88.4960,48.2,1.4,211.0,99.0,'11111222,11111222,11144222' 
ADCP,ioos:station:wmo:42887:1,2012-05-06T07:40:00Z,28.1910,-88.4960,48.2,1.2,248.0,99.0,'11111222,11111222,11144222' 
ADCP,ioos:station:wmo:42887:1,2012-05-06T09:00:00Z,28.1910,-88.4960,48.2,0.2,303.0,99.0,'11111222,11111222,11144222' 
ADCP,ioos:station:wmo:42887:1,2012-05-06T09:20:00Z,28.1910,-88.4960,48.2,1.0,291.0,99.0,'11111222,11111222,11144222' 
ADCP,ioos:station:wmo:42887:1,2012-05-06T10:40:00Z,28.1910,-88.4960,48.2,2.4,356.0,99.0,'11111222,11111222,11144222' 
ADCP,ioos:station:wmo:42887:1,2012-05-06T11:20:00Z,28.1910,-88.4960,48.2,2.5,356.0,99.0,'11111222,11111222,11144222' 
ADCP,ioos:station:wmo:42887:1,2012-05-06T12:00:00Z,28.1910,-88.4960,48.2,3.1,346.0,99.0,'11111222,11111222,11144222' 
ADCP,ioos:station:wmo:42887:1,2012-05-06T12:20:00Z,28.1910,-88.4960,48.2,1.0,347.0,99.0,'11111222,11111222,11144222' 
ADCP,ioos:station:wmo:42887:1,2012-05-06T12:40:00Z,28.1910,-88.4960,48.2,0.9,348.0,99.0,'11111222,11111222,11144222' 
ADCP,ioos:station:wmo:42887:1,2012-05-06T13:00:00Z,28.1910,-88.4960,48.2,1.4,346.0,99.0,'11111222,11111222,11144222' 
ADCP,ioos:station:wmo:42887:1,2012-05-06T15:20:00Z,28.1910,-88.4960,48.2,1.4,353.0,99.0,'11111222,11111222,11144222' 
ADCP,ioos:station:wmo:42887:1,2012-05-06T16:20:00Z,28.1910,-88.4960,48.2,2.8,335.0,99.0,'11111222,11111222,11144222' 
ADCP,ioos:station:wmo:42887:1,2012-05-06T17:00:00Z,28.1910,-88.4960,48.2,2.5,335.0,99.0,'11111222,11111222,11144222' 
ADCP,ioos:station:wmo:42887:1,2012-05-06T17:40:00Z,28.1910,-88.4960,48.2,2.3,335.0,99.0,'11111222,11111222,11144222' 
ADCP,ioos:station:wmo:42887:1,2012-05-06T18:00:00Z,28.1910,-88.4960,48.2,2.2,334.0,99.0,'11111222,11111222,11144222' 
ADCP,ioos:station:wmo:42887:1,2012-05-06T18:20:00Z,28.1910,-88.4960,48.2,2.7,10.0,99.0,'11111222,11111222,11144222' 
ADCP,ioos:station:wmo:42887:1,2012-05-06T19:20:00Z,28.1910,-88.4960,48.2,0.8,11.0,99.0,'11111222,11111222,11144222' 
ADCP,ioos:station:wmo:42887:1,2012-05-06T20:20:00Z,28.1910,-88.4960,48.2,0.0,331.0,99.0,'11111222,11111222,11144222' 
ADCP,ioos:station:wmo:42887:1,2012-05-06T23:00:00Z,28.1910,-88.4960,48.2,0.6,11.0,99.0,'11111222,11111222,11144222' 
ADCP,ioos:station:wmo:42887:1,2012-05-06T23:20:00Z,28.1910,-88.4960,48.2,0.6,11.0,99.0,'11111222,11111222,11144222' 
ADCP,ioos:station:wmo:42887:1,2012-05-07T00:20:00Z,28.1910,-88.4960,48.2,1.3,10.0,99.0,'11111222,11111222,11144222' 
ADCP,ioos:station:wmo:42887:1,2012-05-07T00:40:00Z,28.1910,-88.4960,48.2,0.1,11.0,99.0,'11111222,11111222,11144222' 
ADCP,ioos:station:wmo:42887:1,2012-05-07T01:20:00Z,28.1910,-88.4960,48.2,0.1,11.0,99.0,'11111222,11111222,11144222' 
ADCP,ioos:station:wmo:42887:1,2012-05-07T01:40:00Z,28.1910,-88.4960,48.2,0.6,344.0,99.0,'11111222,11111222,11144222' 
ADCP,ioos:station:wmo:42887:1,2012-05-07T02:40:00Z,28.1910,-88.4960,48.2,1.2,344.0,99.0,'11111222,11111222,11144222' 
ADCP,ioos:station:wmo:42887:1,2012-05-07T03:40:00Z,28.1910,-88.4960,48.2,1.8,335.0,99.0,'11111222,11111222,11144222' 
ADCP,ioos:station:wmo:42887:1,2012-05-07T04:00:00Z,28.1910,-88.4960,48.2,2.0,336.0,99.0,'11111222,11111222,11144222' 
ADCP,ioos:station:wmo:42887:1,2012-05-07T04:20:00Z,28.1910,-88.4960,48.2,0.7,336.0,99.0,'11111222,11111222,11144222' 
ADCP,ioos:station:wmo:42887:1,2012-05-07T05:20:00Z,28.1910,-88.4960,48.2,1.0,261.0,99.0,'11111222,11111222,11144222' 
ADCP,ioos:station:wmo:42887:1,2012-05-07T05:40:00Z,28.1910,-88.4960,48.2,1.2,250.0,99.0,'11111222,11111222,11144222' 
ADCP,ioos:station:wmo:42887:1,2012-05-07T07:40:00Z,28.1910,-88.4960,48.2,2.1,275.0,99.0,'11111222,11111222,11144222' 
ADCP,ioos:station:wmo:42887:1,2012-05-07T08:40:00Z,28.1910,-88.4960,48.2,0.2,295.0,99.0,'11111222,11111222,11144222' 
ADCP,ioos:station:wmo:42887:1,2012-05-07T09:20:00Z,28.1910,-88.4960,48.2,1.7,3.0,99.0,'11111222,11111222,11144222' 
ADCP,ioos:station:wmo:42887:1,2012-05-07T10:00:00Z,28.1910,-88.4960,48.2,0.2,327.0,99.0,'11111222,11111222,11144222' 
ADCP,ioos:station:wmo:42887:1,2012-05-07T10:40:00Z,28.1910,-88.4960,48.2,1.0,360.0,99.0,'11111222,11144222,11144222' 
ADCP,ioos:station:wmo:42887:1,2012-05-07T11:40:00Z,28.1910,-88.4960,48.2,1.4,12.0,99.0,'11111222,11111222,11144222' 
ADCP,ioos:station:wmo:42887:1,2012-05-07T12:20:00Z,28.1910,-88.4960,48.2,0.9,61.0,99.0,'11111222,11111222,11144222' 
ADCP,ioos:station:wmo:42887:1,2012-05-07T13:20:00Z,28.1910,-88.4960,48.2,0.2,266.0,99.0,'11111222,11111222,11144222' 
ADCP,ioos:station:wmo:42887:1,2012-05-07T14:00:00Z,28.1910,-88.4960,48.2,0.6,191.0,99.0,'11111222,11111222,11144222' 
ADCP,ioos:station:wmo:42887:1,2012-05-07T14:40:00Z,28.1910,-88.4960,48.2,1.0,235.0,99.0,'11111222,11111222,11144222' 
ADCP,ioos:station:wmo:42887:1,2012-05-07T15:20:00Z,28.1910,-88.4960,48.2,0.7,252.0,99.0,'11111222,11111222,11144222' 
ADCP,ioos:station:wmo:42887:1,2012-05-07T15:40:00Z,28.1910,-88.4960,48.2,1.1,223.0,99.0,'11111222,11111222,11144222' 
ADCP,ioos:station:wmo:42887:1,2012-05-07T16:00:00Z,28.1910,-88.4960,48.2,0.3,282.0,99.0,'11111222,11111222,11144222' 
ADCP,ioos:station:wmo:42887:1,2012-05-07T16:40:00Z,28.1910,-88.4960,48.2,1.4,233.0,99.0,'11111222,11111222,11144222' 
ADCP,ioos:station:wmo:42887:1,2012-05-07T17:00:00Z,28.1910,-88.4960,48.2,0.7,260.0,99.0,'11111222,11111222,11144222' 
ADCP,ioos:station:wmo:42887:1,2012-05-07T17:20:00Z,28.1910,-88.4960,48.2,0.6,259.0,99.0,'11111222,11111222,11144222' 
ADCP,ioos:station:wmo:42887:1,2012-05-07T18:20:00Z,28.1910,-88.4960,48.2,0.6,258.0,99.0,'11111222,11111222,11144222' 
ADCP,ioos:station:wmo:42887:1,2012-05-07T19:20:00Z,28.1910,-88.4960,48.2,0.2,125.0,99.0,'11111222,11111222,11144222' 
ADCP,ioos:station:wmo:42887:1,2012-05-07T19:40:00Z,28.1910,-88.4960,48.2,0.4,350.0,99.0,'11111222,11111222,11144222' 
ADCP,ioos:station:wmo:42887:1,2012-05-07T21:20:00Z,28.1910,-88.4960,48.2,0.4,183.0,99.0,'11111222,11111222,11144222' 
ADCP,ioos:station:wmo:42887:1,2012-05-07T23:00:00Z,28.1910,-88.4960,48.2,1.4,205.0,99.0,'11111222,11111222,11144222' 
ADCP,ioos:station:wmo:42887:1,2012-05-07T23:20:00Z,28.1910,-88.4960,48.2,0.6,261.0,99.0,'11111222,11111222,11144222' 
ADCP,ioos:station:wmo:42887:1,2012-05-08T00:00:00Z,28.1910,-88.4960,48.2,0.8,233.0,99.0,'11111222,11111222,11144222' 
ADCP,ioos:station:wmo:42887:1,2012-05-08T01:00:00Z,28.1910,-88.4960,48.2,0.9,224.0,99.0,'11111222,11111222,11144222' 
ADCP,ioos:station:wmo:42887:1,2012-05-08T01:20:00Z,28.1910,-88.4960,48.2,0.9,213.0,99.0,'11111222,11111222,11144222' 
ADCP,ioos:station:wmo:42887:1,2012-05-08T03:20:00Z,28.1910,-88.4960,48.2,1.2,241.0,99.0,'11111222,11111222,11144222' 
ADCP,ioos:station:wmo:42887:1,2012-05-08T03:40:00Z,28.1910,-88.4960,48.2,0.9,203.0,99.0,'11111222,11111222,11144222' 
ADCP,ioos:station:wmo:42887:1,2012-05-08T04:00:00Z,28.1910,-88.4960,48.2,0.5,250.0,99.0,'11111222,11111222,11144222' 
ADCP,ioos:station:wmo:42887:1,2012-05-08T04:20:00Z,28.1910,-88.4960,48.2,0.6,231.0,99.0,'11111222,11111222,11144222' 
ADCP,ioos:station:wmo:42887:1,2012-05-08T05:00:00Z,28.1910,-88.4960,48.2,1.0,290.0,99.0,'11111222,11111222,11144222' 
ADCP,ioos:station:wmo:42887:1,2012-05-08T05:20:00Z,28.1910,-88.4960,48.2,0.5,272.0,99.0,'11111222,11111222,11144222' 
ADCP,ioos:station:wmo:42887:1,2012-05-08T05:40:00Z,28.1910,-88.4960,48.2,0.8,269.0,99.0,'11111222,11111222,11144222' 
ADCP,ioos:station:wmo:42887:1,2012-05-08T07:00:00Z,28.1910,-88.4960,48.2,0.6,169.0,99.0,'11111222,11111222,11144222' 
ADCP,ioos:station:wmo:42887:1,2012-05-08T07:20:00Z,28.1910,-88.4960,48.2,0.8,197.0,99.0,'11111222,11111222,11144222' 
ADCP,ioos:station:wmo:42887:1,2012-05-08T08:00:00Z,28.1910,-88.4960,48.2,1.4,214.0,99.0,'11111222,11111222,11144222' 
ADCP,ioos:station:wmo:42887:1,2012-05-08T08:20:00Z,28.1910,-88.4960,48.2,1.3,205.0,99.0,'11111222,11111222,11144222' 
ADCP,ioos:station:wmo:42887:1,2012-05-08T09:20:00Z,28.1910,-88.4960,48.2,1.9,192.0,99.0,'11111222,11111222,11144222' 
ADCP,ioos:station:wmo:42887:1,2012-05-08T10:00:00Z,28.1910,-88.4960,48.2,1.1,192.0,99.0,'11111222,11111222,11144222' 
ADCP,ioos:station:wmo:42887:1,2012-05-08T10:40:00Z,28.1910,-88.4960,48.2,1.0,195.0,99.0,'11111222,11111222,11144222' 
ADCP,ioos:station:wmo:42887:1,2012-05-08T11:00:00Z,28.1910,-88.4960,48.2,0.6,224.0,99.0,'11111222,11111222,11144222' 
ADCP,ioos:station:wmo:42887:1,2012-05-08T11:40:00Z,28.1910,-88.4960,48.2,1.4,250.0,99.0,'11111222,11111222,11144222' 
ADCP,ioos:station:wmo:42887:1,2012-05-08T12:40:00Z,28.1910,-88.4960,48.2,0.6,65.0,99.0,'11111222,11111222,11144222' 
ADCP,ioos:station:wmo:42887:1,2012-05-08T15:20:00Z,28.1910,-88.4960,48.2,0.4,264.0,99.0,'11111222,11111222,11144222' 
ADCP,ioos:station:wmo:42887:1,2012-05-08T15:40:00Z,28.1910,-88.4960,48.2,0.2,17.0,99.0,'11111222,11111222,11144222' 